This is the latest recevied weather packets stored in our database for station/object DL7HMX-13. If no packets are shown the sender has not sent any weather packets the latest 10 day(s).
| Time | Temp. | Humidity | Pressure | Rain* | Wind** | Luminosity | Snow |
|---|---|---|---|---|---|---|---|
| 1777691429 | 4.44° C | 96% | 1024.9 hPa | 0 mm | - | 0 W/m² | - |
| 1777690816 | 4.44° C | 95% | 1024.8 hPa | 0 mm | - | 0 W/m² | - |
| 1777690219 | 5° C | 95% | 1024.8 hPa | 0 mm | - | 0 W/m² | - |
| 1777689622 | 5° C | 95% | 1025 hPa | 0 mm | - | 0 W/m² | - |
| 1777689025 | 5° C | 94% | 1024.9 hPa | 0 mm | - | 0 W/m² | - |
| 1777688428 | 5° C | 95% | 1025.1 hPa | 0 mm | - | 0 W/m² | - |
| 1777687831 | 5° C | 95% | 1025.2 hPa | 0 mm | - | 0 W/m² | - |
| 1777687218 | 5° C | 94% | 1025.2 hPa | 0 mm | - | 0 W/m² | - |
| 1777686621 | 5° C | 94% | 1025.2 hPa | 0 mm | - | 0 W/m² | - |
| 1777686025 | 5.56° C | 94% | 1025.2 hPa | 0 mm | - | 0 W/m² | - |
| 1777685427 | 5° C | 94% | 1025.5 hPa | 0 mm | - | 0 W/m² | - |
| 1777684831 | 5° C | 93% | 1025.5 hPa | 0 mm | - | 0 W/m² | - |
| 1777684218 | 5.56° C | 92% | 1025.6 hPa | 0 mm | - | 0 W/m² | - |
| 1777683619 | 5.56° C | 93% | 1025.6 hPa | 0 mm | - | 0 W/m² | - |
| 1777683023 | 5.56° C | 92% | 1025.7 hPa | 0 mm | - | 0 W/m² | - |
| 1777682426 | 5.56° C | 92% | 1025.6 hPa | 0 mm | - | 0 W/m² | - |
| 1777681829 | 6.11° C | 91% | 1025.7 hPa | 0 mm | - | 0 W/m² | - |
| 1777681231 | 6.67° C | 90% | 1025.7 hPa | 0 mm | - | 0 W/m² | - |
| 1777680618 | 6.67° C | 89% | 1025.9 hPa | 0 mm | - | 0 W/m² | - |
| 1777680021 | 6.67° C | 90% | 1025.9 hPa | 0 mm | - | 0 W/m² | - |
| 1777679423 | 6.67° C | 89% | 1025.9 hPa | 0 mm | - | 0 W/m² | - |
| 1777678826 | 7.22° C | 88% | 1025.9 hPa | 0 mm | - | 0 W/m² | - |
| 1777678230 | 7.22° C | 86% | 1026.1 hPa | 0 mm | - | 0 W/m² | - |
| 1777677617 | 7.22° C | 87% | 1026.2 hPa | 0 mm | - | 0 W/m² | - |
| 1777677019 | 7.78° C | 86% | 1026.3 hPa | 0 mm | - | 0 W/m² | - |
* Rain latest hour (hover to see other rain measurements)
** Current wind speed in m/s (hover to see current wind gust speed)